When you browse on this site, cookies collect data to enhance your experience and personalize the content and advertising you see.
Visit our Privacy Policy to learn more. By continuing to use the site, you agree to this use of cookies and data.
  • In Hungary
  • List of Countries
  • For 7 days
  • Water Temperature
  • Satellite Maps
  • Weather Map
  • News
  • Weather Widgets
  • user-avatar
    Login

    Hourly Weather Kamianna

    Today, 25 April, Thursday

    Time Temperature Precipitation Wind Pressure Humidity
    00:00 +10°C° 0 mm 3 mps 706 mmHg 93%
    01:00 +9°C° 0 mm 3 mps 706 mmHg 94%
    02:00 +10°C° 0 mm 4 mps 706 mmHg 93%
    03:00 +10°C° 0 mm 4 mps 706 mmHg 92%
    04:00 +10°C° 0 mm 4 mps 706 mmHg 91%
    05:00 +10°C° 0 mm 5 mps 706 mmHg 88%
    06:00 +10°C° 0 mm 5 mps 706 mmHg 85%
    07:00 +12°C° 0 mm 5 mps 706 mmHg 82%
    08:00 +13°C° 0 mm 6 mps 707 mmHg 77%
    09:00 +14°C° 0 mm 6 mps 707 mmHg 72%
    10:00 +15°C° 0 mm 6 mps 707 mmHg 67%
    11:00 +16°C° 0 mm 6 mps 707 mmHg 63%
    12:00 +17°C° 0 mm 6 mps 707 mmHg 60%
    13:00 +19°C° 0 mm 6 mps 707 mmHg 57%
    14:00 +19°C° 0 mm 6 mps 707 mmHg 57%
    15:00 +19°C° 0 mm 5 mps 707 mmHg 57%
    16:00 +19°C° 0 mm 5 mps 706 mmHg 57%
    17:00 +18°C° 0 mm 4 mps 706 mmHg 66%
    18:00 +16°C° 0 mm 3 mps 706 mmHg 75%
    19:00 +14°C° 0 mm 2 mps 706 mmHg 84%
    20:00 +13°C° 0 mm 2 mps 706 mmHg 87%
    21:00 +12°C° 0 mm 2 mps 706 mmHg 91%
    22:00 +12°C° 0 mm 2 mps 705 mmHg 94%
    23:00 +12°C° 0 mm 2 mps 705 mmHg 94%

    Tomorrow, 26 April, Friday

    Time Temperature Precipitation Wind Pressure Humidity
    00:00 +10°C° 0 mm 2 mps 705 mmHg 95%
    01:00 +10°C° 0 mm 2 mps 705 mmHg 95%
    02:00 +10°C° 0 mm 3 mps 704 mmHg 95%
    03:00 +10°C° 0 mm 3 mps 704 mmHg 95%
    04:00 +10°C° 0 mm 3 mps 704 mmHg 95%
    05:00 +11°C° 0 mm 4 mps 704 mmHg 89%
    06:00 +12°C° 0 mm 5 mps 704 mmHg 84%
    07:00 +13°C° 0 mm 5 mps 704 mmHg 78%
    08:00 +15°C° 0 mm 6 mps 704 mmHg 70%
    09:00 +17°C° 0 mm 6 mps 704 mmHg 62%
    10:00 +18°C° 0 mm 7 mps 704 mmHg 55%
    11:00 +21°C° 0 mm 7 mps 704 mmHg 51%
    12:00 +22°C° 0 mm 7 mps 704 mmHg 47%
    13:00 +23°C° 0 mm 7 mps 703 mmHg 44%
    14:00 +23°C° 0 mm 6 mps 703 mmHg 45%
    15:00 +23°C° 0 mm 6 mps 703 mmHg 45%
    16:00 +23°C° 0 mm 6 mps 703 mmHg 46%
    17:00 +21°C° 0 mm 5 mps 702 mmHg 53%
    18:00 +19°C° 0 mm 4 mps 702 mmHg 60%
    19:00 +17°C° 0 mm 3 mps 702 mmHg 66%
    20:00 +16°C° 0 mm 3 mps 702 mmHg 69%
    21:00 +14°C° 0 mm 3 mps 702 mmHg 72%
    22:00 +14°C° 0 mm 2 mps 701 mmHg 74%
    23:00 +14°C° 0 mm 2 mps 701 mmHg 74%

    Day after tomorrow, 27 April, Saturday

    Time Temperature Precipitation Wind Pressure Humidity
    00:00 +14°C° 0 mm 2 mps 702 mmHg 73%
    01:00 +14°C° 0 mm 2 mps 702 mmHg 72%
    02:00 +14°C° 0.1 mm 2 mps 702 mmHg 77%
    03:00 +13°C° 0.1 mm 2 mps 701 mmHg 81%
    04:00 +13°C° 0.1 mm 1 mps 701 mmHg 85%
    05:00 +13°C° 0.1 mm 1 mps 702 mmHg 85%
    06:00 +13°C° 0.1 mm 1 mps 702 mmHg 85%
    07:00 +13°C° 0.1 mm 0 mps 702 mmHg 86%
    08:00 +14°C° 0.2 mm 1 mps 702 mmHg 84%
    09:00 +15°C° 0.2 mm 1 mps 702 mmHg 83%
    10:00 +15°C° 0.2 mm 1 mps 702 mmHg 81%
    11:00 +14°C° 1.2 mm 2 mps 702 mmHg 85%
    12:00 +13°C° 1.2 mm 2 mps 702 mmHg 89%
    13:00 +12°C° 1.2 mm 2 mps 701 mmHg 94%
    14:00 +10°C° 2.6 mm 2 mps 701 mmHg 94%
    15:00 +9°C° 2.6 mm 3 mps 701 mmHg 94%
    16:00 +7°C° 2.6 mm 3 mps 700 mmHg 95%
    17:00 +7°C° 1.5 mm 3 mps 701 mmHg 95%
    18:00 +8°C° 1.5 mm 2 mps 701 mmHg 95%
    19:00 +8°C° 1.5 mm 2 mps 701 mmHg 96%
    20:00 +8°C° 0.4 mm 2 mps 701 mmHg 96%
    21:00 +8°C° 0.4 mm 2 mps 701 mmHg 95%
    22:00 +8°C° 0.4 mm 2 mps 701 mmHg 95%
    23:00 +8°C° 0.2 mm 2 mps 701 mmHg 95%

    28 April, Sunday

    Time Temperature Precipitation Wind Pressure Humidity
    00:00 +8°C° 0.2 mm 2 mps 701 mmHg 95%
    01:00 +8°C° 0.2 mm 2 mps 701 mmHg 95%
    02:00 +7°C° 0.1 mm 2 mps 701 mmHg 95%
    03:00 +7°C° 0.1 mm 2 mps 701 mmHg 95%
    04:00 +7°C° 0.1 mm 3 mps 701 mmHg 95%
    05:00 +7°C° 0.5 mm 3 mps 701 mmHg 94%
    06:00 +7°C° 0.5 mm 3 mps 702 mmHg 94%
    07:00 +6°C° 0.5 mm 4 mps 702 mmHg 93%
    08:00 +6°C° 1 mm 4 mps 702 mmHg 92%
    09:00 +6°C° 1 mm 4 mps 702 mmHg 92%
    10:00 +6°C° 1 mm 4 mps 703 mmHg 91%
    11:00 +6°C° 1 mm 4 mps 703 mmHg 91%
    12:00 +6°C° 1 mm 4 mps 703 mmHg 91%
    13:00 +6°C° 1 mm 4 mps 703 mmHg 91%
    14:00 +6°C° 0.3 mm 4 mps 703 mmHg 91%
    15:00 +6°C° 0.3 mm 4 mps 703 mmHg 91%
    16:00 +7°C° 0.3 mm 4 mps 703 mmHg 91%
    17:00 +7°C° 0.1 mm 3 mps 703 mmHg 92%
    18:00 +7°C° 0.1 mm 3 mps 703 mmHg 94%
    19:00 +5°C° 0.1 mm 3 mps 703 mmHg 95%
    20:00 +6°C° 0 mm 2 mps 703 mmHg 95%
    21:00 +6°C° 0 mm 2 mps 703 mmHg 96%
    22:00 +6°C° 0 mm 2 mps 703 mmHg 96%
    23:00 +6°C° 0 mm 2 mps 702 mmHg 96%

    29 April, Monday

    Time Temperature Precipitation Wind Pressure Humidity
    00:00 +5°C° 0 mm 2 mps 702 mmHg 96%
    01:00 +6°C° 0 mm 1 mps 702 mmHg 97%
    02:00 +6°C° 0 mm 1 mps 702 mmHg 96%
    03:00 +6°C° 0 mm 1 mps 702 mmHg 96%
    04:00 +6°C° 0 mm 1 mps 702 mmHg 96%
    05:00 +7°C° 0 mm 1 mps 702 mmHg 93%
    06:00 +8°C° 0 mm 1 mps 702 mmHg 90%
    07:00 +9°C° 0 mm 1 mps 702 mmHg 87%
    08:00 +10°C° 0 mm 1 mps 702 mmHg 80%
    09:00 +12°C° 0 mm 1 mps 703 mmHg 73%
    10:00 +14°C° 0 mm 1 mps 703 mmHg 66%
    11:00 +13°C° 0.1 mm 1 mps 703 mmHg 68%
    12:00 +13°C° 0.1 mm 1 mps 702 mmHg 70%
    13:00 +13°C° 0.1 mm 1 mps 702 mmHg 72%
    14:00 +13°C° 0.1 mm 1 mps 702 mmHg 73%
    15:00 +13°C° 0.1 mm 1 mps 702 mmHg 75%
    16:00 +13°C° 0.1 mm 2 mps 702 mmHg 77%
    17:00 +12°C° 0.2 mm 1 mps 702 mmHg 84%
    18:00 +10°C° 0.2 mm 1 mps 701 mmHg 90%
    19:00 +9°C° 0.2 mm 1 mps 701 mmHg 97%
    20:00 +9°C° 0.1 mm 1 mps 701 mmHg 98%
    21:00 +9°C° 0.1 mm 1 mps 702 mmHg 98%
    22:00 +8°C° 0.1 mm 1 mps 702 mmHg 98%
    23:00 +8°C° 0 mm 1 mps 702 mmHg 98%

    30 April, Tuesday

    Time Temperature Precipitation Wind Pressure Humidity
    00:00 +8°C° 0 mm 1 mps 702 mmHg 99%
    01:00 +8°C° 0 mm 1 mps 701 mmHg 99%
    02:00 +8°C° 0.1 mm 1 mps 701 mmHg 98%
    03:00 +7°C° 0.1 mm 2 mps 702 mmHg 98%
    04:00 +7°C° 0.1 mm 2 mps 702 mmHg 98%
    05:00 +7°C° 0.1 mm 2 mps 702 mmHg 97%
    06:00 +7°C° 0.1 mm 2 mps 702 mmHg 97%
    07:00 +7°C° 0.1 mm 2 mps 702 mmHg 96%
    08:00 +7°C° 0.1 mm 2 mps 702 mmHg 96%
    09:00 +7°C° 0.1 mm 3 mps 702 mmHg 95%
    10:00 +7°C° 0.1 mm 3 mps 702 mmHg 95%
    11:00 +7°C° 0.1 mm 3 mps 702 mmHg 94%
    12:00 +7°C° 0.1 mm 3 mps 702 mmHg 94%
    13:00 +7°C° 0.1 mm 3 mps 702 mmHg 94%
    14:00 +7°C° 0.1 mm 3 mps 702 mmHg 94%
    15:00 +5°C° 0.1 mm 3 mps 702 mmHg 95%
    16:00 +5°C° 0.1 mm 3 mps 702 mmHg 95%
    17:00 +5°C° 0.1 mm 3 mps 702 mmHg 95%
    18:00 +4°C° 0.1 mm 3 mps 702 mmHg 96%
    19:00 +4°C° 0.1 mm 3 mps 703 mmHg 96%
    20:00 +5°C° 0.1 mm 2 mps 703 mmHg 96%
    21:00 +5°C° 0.1 mm 2 mps 703 mmHg 96%
    22:00 +5°C° 0.1 mm 2 mps 703 mmHg 97%
    23:00 +5°C° 0.1 mm 2 mps 703 mmHg 97%
    Show more